This is the latest recevied weather packets stored in our database for station/object DB0SMU-12. If no packets are shown the sender has not sent any weather packets the latest 10 day(s).
| Time | Temp. | Humidity | Pressure | Rain* | Wind** | Luminosity | Snow |
|---|---|---|---|---|---|---|---|
| 1787400228 | 16.11° C | 64% | 1021.4 hPa | 0 mm | - | - | - |
| 1787400047 | 16.11° C | 60% | 1021.4 hPa | 0 mm | - | - | - |
| 1787399866 | 16.11° C | 64% | 1021.5 hPa | 0 mm | - | - | - |
| 1787399685 | 16.67° C | 64% | 1021.5 hPa | 0 mm | - | - | - |
| 1787399504 | 16.67° C | 64% | 1021.4 hPa | 0 mm | - | - | - |
| 1787399323 | 16.67° C | 64% | 1021.3 hPa | 0 mm | - | - | - |
| 1787399142 | 16.67° C | 64% | 1021.3 hPa | 0 mm | - | - | - |
| 1787398961 | 16.67° C | 64% | 1021.2 hPa | 0 mm | - | - | - |
| 1787398780 | 16.11° C | 66% | 1021.3 hPa | 0 mm | - | - | - |
| 1787398599 | 15.56° C | 66% | 1021.3 hPa | 0 mm | - | - | - |
| 1787398418 | 15° C | 70% | 1021.2 hPa | 0 mm | - | - | - |
| 1787398237 | 15° C | 70% | 1021.2 hPa | 0 mm | - | - | - |
| 1787398056 | 15° C | 70% | 1021.1 hPa | 0 mm | - | - | - |
| 1787397876 | 15° C | 68% | 1021.2 hPa | 0 mm | - | - | - |
| 1787397695 | 15° C | 68% | 1021.2 hPa | 0 mm | - | - | - |
| 1787397514 | 15.56° C | 67% | 1021.3 hPa | 0 mm | - | - | - |
| 1787397333 | 15.56° C | 68% | 1021.3 hPa | 0 mm | - | - | - |
| 1787397152 | 15.56° C | 71% | 1021.2 hPa | 0 mm | - | - | - |
| 1787396971 | 15.56° C | 67% | 1021 hPa | 0 mm | - | - | - |
| 1787396790 | 15.56° C | 69% | 1021.1 hPa | 0 mm | - | - | - |
| 1787396608 | 15.56° C | 66% | 1021.1 hPa | 0 mm | - | - | - |
| 1787396427 | 15.56° C | 65% | 1021.1 hPa | 0 mm | - | - | - |
| 1787396247 | 16.11° C | 63% | 1021.1 hPa | 0 mm | - | - | - |
| 1787396066 | 17.22° C | 65% | 1021 hPa | 0 mm | - | - | - |
| 1787395885 | 17.22° C | 65% | 1020.7 hPa | 0 mm | - | - | - |
* Rain latest hour (hover to see other rain measurements)
** Current wind speed in m/s (hover to see current wind gust speed)